Content
SEND FEEDBACK

Daily
Averages
Monthly
Summary
United States of America

PLACERVILLE, CALIFORNIA


Home > North America > United States > California
Elevation: 2590 feet     Latitude: 38 43N     Longitude: 120 45W

WEATHER
 
SELECT A DAY
Number of Records: 98,437;   Date Range: 7/10/09 - 9/30/14
 
SHARE

PRINT THIS DATA

[ ← Previous Day ]
WEATHER ALMANAC - FEBRUARY 24, 2013
[ Next Day → ]
[ °C ]   °F
Weather ElementAverageHighLow
Temperature45 °F53.6 °F (1:15 pm)37.4 °F (1:15 am)
Dewpoint18 °F26.6 °F (1:55 pm)8.6 °F (6:15 am)
Humidity35.1 %57 % (10:15 pm)20 % (10:35 am)
Barometer30.17 in30.24 in (11:55 pm)30.12 in (2:35 am)
Wind Speed5.8 mph11.5 mph (2:55 am)
Weather ElementAverage
Visibility10 mi
Wind DirectionSE (135.6 °)

Weather ElementTotal
Precipitation---
Heating Degree Days19.5 (Base 65)
Averaged from 68 records on February 24, 2013
WEATHER CONDITIONS BREAKOUT
WIND DIRECTION BREAKOUT
WEATHER BY HOUR - FEBRUARY 24, 2013
[ °C ]   °F
Local TimeTemperatureDewpointHumidityBarometerVisibilityWind DirectionWind SpeedGust SpeedPrecipitationEventsConditions
12:35 AM39.2 °F12.2 °F33 %30.13 in10.0 miNNE (30°)9.2 mphClear
12:55 AM39.2 °F14.0 °F36 %30.13 in10.0 miNE (40°)10.4 mphClear
1:15 AM37.4 °F12.2 °F36 %30.14 in10.0 miNE (40°)8.1 mphClear
1:55 AM39.2 °F10.4 °F31 %30.13 in10.0 miNNE (30°)10.4 mphClear
2:15 AM37.4 °F12.2 °F36 %30.13 in10.0 miNE (40°)8.1 mphClear
2:35 AM39.2 °F14.0 °F36 %30.12 in10.0 miNE (50°)6.9 mphClear
2:55 AM37.4 °F14.0 °F38 %30.12 in10.0 miENE (60°)11.5 mphClear
3:15 AM37.4 °F12.2 °F36 %30.12 in10.0 miENE (60°)9.2 mphClear
3:35 AM37.4 °F14.0 °F38 %30.12 in10.0 miENE (70°)10.4 mphClear
3:55 AM37.4 °F12.2 °F36 %30.12 in10.0 miEast (90°)6.9 mphClear
4:15 AM37.4 °F10.4 °F33 %30.12 in10.0 miEast (90°)8.1 mphClear
4:35 AM37.4 °F10.4 °F33 %30.12 in10.0 miENE (70°)10.4 mphClear
4:55 AM37.4 °F10.4 °F33 %30.12 in10.0 miEast (80°)9.2 mphClear
5:15 AM37.4 °F10.4 °F33 %30.13 in10.0 miEast (80°)9.2 mphClear
5:35 AM37.4 °F10.4 °F33 %30.13 in10.0 miEast (80°)11.5 mphClear
5:55 AM37.4 °F10.4 °F33 %30.13 in10.0 miENE (70°)10.4 mphClear
6:15 AM37.4 °F8.6 °F30 %30.13 in10.0 miENE (70°)10.4 mphClear
6:35 AM37.4 °F8.6 °F30 %30.14 in10.0 miEast (80°)8.1 mphClear
6:55 AM37.4 °F8.6 °F30 %30.14 in10.0 miENE (70°)9.2 mphClear
7:15 AM39.2 °F8.6 °F28 %30.15 in10.0 miEast (80°)10.4 mphClear
7:35 AM39.2 °F8.6 °F28 %30.15 in10.0 miEast (80°)9.2 mphClear
7:55 AM39.2 °F10.4 °F31 %30.16 in10.0 miEast (80°)9.2 mphClear
8:15 AM44.6 °F10.4 °F25 %30.17 in10.0 miESE (110°)4.6 mphClear
8:35 AM44.6 °F14.0 °F29 %30.17 in10.0 miESE (120°)3.5 mphClear
8:55 AM46.4 °F10.4 °F23 %30.18 in10.0 miSE (140°)5.8 mphClear
9:15 AM46.4 °F10.4 °F23 %30.18 in10.0 miESE (120°)3.5 mphClear
9:35 AM48.2 °F14.0 °F25 %30.19 in10.0 miSouth (170°)3.5 mphClear
9:55 AM48.2 °F15.8 °F27 %30.19 in10.0 miWSW (250°)4.6 mphClear
10:15 AM48.2 °F15.8 °F27 %30.20 in10.0 miCalmClear
10:35 AM48.2 °F8.6 °F20 %30.20 in10.0 miNorth (350°)4.6 mphClear
10:55 AM48.2 °F10.4 °F22 %30.20 in10.0 miCalmClear
11:15 AM50.0 °F10.4 °F20 %30.20 in10.0 miCalmClear
11:35 AM50.0 °F12.2 °F22 %30.20 in10.0 miWNW (300°)5.8 mphClear
11:55 AM51.8 °F14.0 °F22 %30.19 in10.0 miNNW (340°)4.6 mphClear
12:15 PM51.8 °F15.8 °F24 %30.19 in10.0 miNW (310°)9.2 mphClear
12:35 PM51.8 °F15.8 °F24 %30.18 in10.0 miNW (310°)5.8 mphClear
12:55 PM51.8 °F19.4 °F28 %30.17 in10.0 miWNW (300°)5.8 mphClear
1:15 PM53.6 °F24.8 °F33 %30.17 in10.0 miWest (270°)6.9 mphClear
1:35 PM53.6 °F24.8 °F33 %30.17 in10.0 miWest (280°)8.1 mphClear
1:55 PM53.6 °F26.6 °F35 %30.16 in10.0 miWSW (240°)6.9 mphClear
2:15 PM53.6 °F26.6 °F35 %30.16 in10.0 miWest (260°)8.1 mphClear
2:35 PM53.6 °F26.6 °F35 %30.17 in10.0 miSW (230°)6.9 mphClear
2:55 PM53.6 °F26.6 °F35 %30.17 in10.0 miSW (230°)5.8 mphClear
3:15 PM53.6 °F26.6 °F35 %30.17 in10.0 miWest (260°)8.1 mphClear
3:35 PM53.6 °F26.6 °F35 %30.17 in10.0 miSW (230°)4.6 mphClear
3:55 PM53.6 °F26.6 °F35 %30.17 in10.0 miSW (230°)6.9 mphClear
4:15 PM53.6 °F24.8 °F33 %30.17 in10.0 miWSW (250°)6.9 mphClear
4:35 PM51.8 °F26.6 °F38 %30.17 in10.0 miWSW (240°)3.5 mphClear
4:55 PM50.0 °F24.8 °F37 %30.17 in10.0 miWest (270°)3.5 mphClear
5:15 PM50.0 °F24.8 °F37 %30.17 in10.0 miCalmClear
5:35 PM48.2 °F23.0 °F37 %30.17 in10.0 miNW (310°)3.5 mphClear
5:55 PM48.2 °F23.0 °F37 %30.18 in10.0 miWNW (290°)4.6 mphClear
6:15 PM48.2 °F23.0 °F37 %30.18 in10.0 miNNW (330°)3.5 mphClear
6:35 PM46.4 °F23.0 °F40 %30.18 in10.0 miCalmClear
6:55 PM46.4 °F23.0 °F40 %30.18 in10.0 miCalmClear
7:15 PM46.4 °F24.8 °F43 %30.18 in10.0 miENE (60°)3.5 mphClear
7:35 PM44.6 °F26.6 °F49 %30.18 in10.0 miEast (90°)3.5 mphClear
7:55 PM44.6 °F24.8 °F46 %30.18 in10.0 miEast (90°)3.5 mphClear
8:15 PM46.4 °F24.8 °F43 %30.18 in10.0 miCalmClear
8:35 PM44.6 °F24.8 °F46 %30.18 in10.0 miCalmClear
8:55 PM44.6 °F24.8 °F46 %30.19 in10.0 miSW (220°)3.5 mphClear
9:15 PM44.6 °F24.8 °F46 %30.20 in10.0 miCalmClear
9:35 PM44.6 °F24.8 °F46 %30.21 in10.0 miCalmClear
9:55 PM42.8 °F26.6 °F53 %30.22 in10.0 miESE (120°)3.5 mphClear
10:15 PM41.0 °F26.6 °F57 %30.22 in10.0 miESE (110°)5.8 mphClear
10:55 PM41.0 °F26.6 °F57 %30.22 in10.0 miESE (120°)5.8 mphClear
11:15 PM41.0 °F26.6 °F57 %30.23 in10.0 miESE (120°)3.5 mphClear
11:55 PM41.0 °F26.6 °F57 %30.24 in10.0 miESE (110°)5.8 mphClear
Hourly data recorded from KPVF, located miles away from Placerville, California







STORIES FROM OUR PARTNERS